TimeCST,TemperatureF,Dew PointF,Humidity,Sea Level PressureIn,VisibilityMPH,Wind Direction,Wind SpeedMPH,Gust SpeedMPH,PrecipitationIn,Events,Conditions,WindDirDegrees,DateUTC
12:15 AM,1.4,-5.8,72,29.90,10.0,WNW,18.4,25.3,N/A,,Scattered Clouds,300,2013-01-20 06:15:00
12:35 AM,1.4,-5.8,72,29.91,10.0,WNW,16.1,25.3,N/A,,Clear,300,2013-01-20 06:35:00
12:55 AM,1.4,-5.8,72,29.93,10.0,WNW,12.7,24.2,N/A,,Clear,290,2013-01-20 06:55:00
1:15 AM,1.4,-5.8,72,29.94,10.0,WNW,15.0,23.0,N/A,,Clear,290,2013-01-20 07:15:00
1:35 AM,1.4,-5.8,72,29.95,10.0,WNW,12.7,20.7,N/A,,Clear,300,2013-01-20 07:35:00
2:15 AM,1.4,-5.8,72,29.98,10.0,WNW,11.5,19.6,N/A,,Clear,290,2013-01-20 08:15:00
2:35 AM,-0.4,-5.8,78,29.99,10.0,WNW,10.4,-,N/A,,Clear,300,2013-01-20 08:35:00
2:55 AM,1.4,-5.8,72,30.02,10.0,WNW,12.7,17.3,N/A,,Scattered Clouds,290,2013-01-20 08:55:00
3:15 AM,1.4,-5.8,72,30.02,10.0,West,11.5,18.4,N/A,,Overcast,280,2013-01-20 09:15:00
3:35 AM,1.4,-5.8,72,30.02,10.0,WNW,10.4,16.1,N/A,,Overcast,290,2013-01-20 09:35:00
3:55 AM,-0.4,-5.8,78,30.04,10.0,WNW,10.4,16.1,N/A,,Scattered Clouds,290,2013-01-20 09:55:00
4:15 AM,-0.4,-5.8,78,30.04,10.0,WNW,12.7,19.6,N/A,,Clear,290,2013-01-20 10:15:00
4:35 AM,-0.4,-7.6,72,30.05,10.0,WNW,11.5,20.7,N/A,,Scattered Clouds,290,2013-01-20 10:35:00
4:55 AM,-0.4,-7.6,72,30.06,10.0,West,12.7,18.4,N/A,,Clear,280,2013-01-20 10:55:00
5:15 AM,-0.4,-7.6,72,30.07,10.0,West,13.8,-,N/A,,Scattered Clouds,280,2013-01-20 11:15:00
5:35 AM,-2.2,-7.6,78,30.08,10.0,West,11.5,17.3,N/A,,Clear,280,2013-01-20 11:35:00
6:15 AM,-4.0,-9.4,78,30.10,10.0,West,9.2,-,N/A,,Clear,280,2013-01-20 12:15:00
6:35 AM,-4.0,-9.4,78,30.12,10.0,West,10.4,-,N/A,,Clear,270,2013-01-20 12:35:00
7:15 AM,-5.8,-9.4,84,30.14,10.0,WNW,10.4,-,N/A,,Clear,290,2013-01-20 13:15:00
7:35 AM,-5.8,-9.4,84,30.15,10.0,West,9.2,16.1,N/A,,Clear,280,2013-01-20 13:35:00
7:55 AM,-5.8,-9.4,84,30.15,10.0,WNW,9.2,-,N/A,,Clear,290,2013-01-20 13:55:00
8:15 AM,-5.8,-9.4,84,30.15,10.0,WNW,10.4,16.1,N/A,,Clear,290,2013-01-20 14:15:00
8:35 AM,-4.0,-9.4,78,30.16,10.0,WNW,8.1,-,N/A,,Clear,290,2013-01-20 14:35:00
8:55 AM,-4.0,-9.4,78,30.16,10.0,WNW,11.5,-,N/A,,Clear,290,2013-01-20 14:55:00
9:15 AM,-4.0,-9.4,78,30.16,10.0,WNW,10.4,-,N/A,,Clear,290,2013-01-20 15:15:00
9:35 AM,-2.2,-9.4,71,30.16,10.0,NW,9.2,-,N/A,,Clear,310,2013-01-20 15:35:00
9:55 AM,-0.4,-9.4,66,30.17,10.0,NW,8.1,-,N/A,,Clear,310,2013-01-20 15:55:00
10:15 AM,-0.4,-9.4,66,30.18,10.0,West,8.1,-,N/A,,Clear,270,2013-01-20 16:15:00
10:35 AM,-0.4,-9.4,66,30.18,10.0,WNW,6.9,-,N/A,,Clear,290,2013-01-20 16:35:00
10:55 AM,1.4,-9.4,61,30.18,10.0,West,9.2,-,N/A,,Clear,280,2013-01-20 16:55:00
11:15 AM,1.4,-9.4,61,30.18,10.0,West,12.7,-,N/A,,Clear,280,2013-01-20 17:15:00
11:35 AM,1.4,-9.4,61,30.17,10.0,WNW,6.9,-,N/A,,Clear,290,2013-01-20 17:35:00
12:15 PM,3.2,-9.4,56,30.16,10.0,West,10.4,-,N/A,,Scattered Clouds,280,2013-01-20 18:15:00
12:35 PM,5.0,-9.4,52,30.16,10.0,West,9.2,-,N/A,,Clear,260,2013-01-20 18:35:00
12:55 PM,5.0,-9.4,52,30.16,10.0,West,12.7,16.1,N/A,,Clear,280,2013-01-20 18:55:00
1:15 PM,6.8,-7.6,52,30.15,10.0,WNW,10.4,16.1,N/A,,Clear,290,2013-01-20 19:15:00
1:35 PM,5.0,-9.4,52,30.14,10.0,West,10.4,-,N/A,,Mostly Cloudy,280,2013-01-20 19:35:00
1:55 PM,5.0,-9.4,52,30.13,10.0,NW,9.2,-,N/A,,Overcast,310,2013-01-20 19:55:00
2:15 PM,6.8,-9.4,48,30.14,10.0,NW,8.1,-,N/A,,Scattered Clouds,310,2013-01-20 20:15:00
2:35 PM,6.8,-9.4,48,30.14,10.0,West,8.1,-,N/A,,Scattered Clouds,260,2013-01-20 20:35:00
3:15 PM,5.0,-9.4,52,30.13,10.0,West,10.4,18.4,N/A,,Mostly Cloudy,280,2013-01-20 21:15:00
3:35 PM,5.0,-9.4,52,30.12,10.0,West,11.5,17.3,N/A,,Mostly Cloudy,280,2013-01-20 21:35:00
3:55 PM,5.0,-9.4,52,30.12,10.0,West,9.2,-,N/A,,Scattered Clouds,260,2013-01-20 21:55:00
4:15 PM,3.2,-9.4,56,30.12,10.0,West,6.9,-,N/A,,Clear,260,2013-01-20 22:15:00
4:35 PM,3.2,-9.4,56,30.12,10.0,West,8.1,-,N/A,,Clear,270,2013-01-20 22:35:00
4:55 PM,3.2,-9.4,56,30.12,10.0,West,9.2,-,N/A,,Clear,270,2013-01-20 22:55:00
5:15 PM,1.4,-11.2,56,30.12,10.0,WNW,4.6,-,N/A,,Clear,290,2013-01-20 23:15:00
5:35 PM,-0.4,-11.2,60,30.12,10.0,West,3.5,-,N/A,,Clear,270,2013-01-20 23:35:00
5:55 PM,-0.4,-11.2,60,30.12,10.0,West,3.5,-,N/A,,Clear,260,2013-01-20 23:55:00
6:15 PM,-2.2,-11.2,66,30.12,10.0,West,4.6,-,N/A,,Clear,280,2013-01-21 00:15:00
6:55 PM,-0.4,-9.4,66,30.11,10.0,WSW,3.5,-,N/A,,Clear,250,2013-01-21 00:55:00
7:15 PM,-0.4,-9.4,66,30.11,10.0,West,4.6,-,N/A,,Mostly Cloudy,260,2013-01-21 01:15:00
7:35 PM,-0.4,-9.4,66,30.11,10.0,West,4.6,-,N/A,,Overcast,260,2013-01-21 01:35:00
7:55 PM,-0.4,-9.4,66,30.11,10.0,West,4.6,-,N/A,,Mostly Cloudy,270,2013-01-21 01:55:00
8:15 PM,-2.2,-9.4,71,30.11,10.0,West,5.8,-,N/A,,Scattered Clouds,270,2013-01-21 02:15:00
8:35 PM,-4.0,-9.4,78,30.11,10.0,West,3.5,-,N/A,,Clear,270,2013-01-21 02:35:00
8:55 PM,-4.0,-9.4,78,30.10,10.0,Calm,Calm,-,N/A,,Scattered Clouds,0,2013-01-21 02:55:00
9:15 PM,-5.8,-9.4,84,30.10,10.0,Calm,Calm,-,N/A,,Mostly Cloudy,0,2013-01-21 03:15:00
9:35 PM,-4.0,-9.4,78,30.09,7.0,Calm,Calm,-,N/A,,Mostly Cloudy,0,2013-01-21 03:35:00
9:55 PM,-5.8,-11.2,77,30.09,10.0,Calm,Calm,-,N/A,,Clear,0,2013-01-21 03:55:00
10:15 PM,-5.8,-11.2,77,30.09,10.0,Calm,Calm,-,N/A,,Scattered Clouds,0,2013-01-21 04:15:00
10:35 PM,-5.8,-11.2,77,30.08,10.0,Calm,Calm,-,N/A,,Clear,0,2013-01-21 04:35:00
10:55 PM,-7.6,-11.2,84,30.08,10.0,Calm,Calm,-,N/A,,Clear,0,2013-01-21 04:55:00
11:15 PM,-7.6,-13.0,77,30.07,10.0,West,3.5,-,N/A,,Clear,260,2013-01-21 05:15:00
11:35 PM,-7.6,-13.0,77,30.07,10.0,Calm,Calm,-,N/A,,Clear,0,2013-01-21 05:35:00
11:55 PM,-5.8,-9.4,84,30.07,10.0,West,4.6,-,N/A,,Clear,260,2013-01-21 05:55:00